Regional Weather Roundup
Issued by NWS

Home | Current Version | Previous Version | Graphics & Text | Print | Product List | Glossary On
Versions: 1 2 3 4 5 6 7 8 9 10 11 12 13 14 15 16 17 18 19 20 21 22 23 24 25 26 27 28 29 30 31 32 33 34 35 36 37 38 39 40 41 42 43 44 45 46 47 48 49 50
000
ASUS45 KTFX 271719
RWRMT
MONTANA HOURLY WEATHER ROUNDUP
NATIONAL WEATHER SERVICE GREAT FALLS MT
1019 AM MST TUE JAN 27 2015

NOTE: "FAIR" INDICATES FEW OR NO CLOUDS BELOW 12000 FEET WITH NO
SIGNIFICANT WEATHER AND/OR OBSTRUCTIONS TO VISIBILITY.

* THESE STATIONS ARE NOT UNDER NWS QUALITY CONTROL. THEY DO NOT
   REPORT WEATHER SUCH AS PRECIPITATION OR FOG.

MTZ001>007-043-271800-
WEST OF THE DIVIDE
CITY           SKY/WX    TMP DP  RH WIND       PRES   REMARKS
KALISPELL      PTSUNNY   23  21  92 CALM      29.99S
MISSOULA       FOG       25  21  85 CALM      30.08R
BUTTE          PTSUNNY   28  27  96 CALM      30.05S
MULLAN PASS    CLOUDY    43  27  53 S7        30.02R
* ANACONDA     CLOUDY    39  27  62 N/A        N/A
* ESSEX        N/A       27  25  92 N/A        N/A
* EUREKA APT   PTSUNNY   30  28  92 CALM      29.99S
* HAMILTON APT PTSUNNY   32  28  85 CALM      30.05R
* LIBBY APT    PTCLDY    28  28 100 CALM      30.03S VSB M1/4
* LINCOLN      N/A       24  21  88 NE2        N/A
* LOOKOUT PASS N/A       34  30  85 S2         N/A
* POLSON       N/A       37  31  79 N/A        N/A
* RONAN APT    PTSUNNY   27  23  85 N/A        N/A
* SEELEY LAKE  N/A       20  18  92 N/A        N/A
* THOMP F APT  PTSUNNY   41  24  51 E3         N/A
* YAAK HILL    N/A       30  28  92 SE1        N/A
$$

MTZ008-052>055-271800-
SOUTHWEST MONTANA
CITY           SKY/WX    TMP DP  RH WIND       PRES   REMARKS
BOZEMAN        PTCLDY    36  28  73 CALM      30.04S
DILLON         CLOUDY    39  27  62 S9        30.06R WCI  33
* W YELLOWSTON PTSUNNY   17  14  88 N/A        N/A
* THREE FORKS  PTCLDY    30  30 100 N/A        N/A
* BOULDER HILL N/A       40  22  49 SW9        N/A   WCI  34
* MONIDA PASS  N/A       34  24  67 E9         N/A   WCI  27
* RAYNOLDS PAS N/A       31  17  56 S13        N/A   WCI  21
* WHITEHALL    N/A       36  31  82 NE4        N/A
* WISE RIVER   N/A       25  22  88 NW4        N/A
$$

MTZ009>010-012-014-046-048-049-054-271800-
EAST SLOPES AND CENTRAL MONTANA
CITY           SKY/WX    TMP DP  RH WIND       PRES   REMARKS
CUT BANK       CLOUDY    50  25  38 W15       29.86F
GREAT FALLS    CLOUDY    55  28  35 SW17      29.90S
HELENA         PTCLDY    36  30  79 CALM      30.03S
MALMSTROM AFB  CLOUDY    55  30  39 SW8       29.91S
* CONRAD       CLOUDY    50  28  43 S9         N/A
* DEARBORN     N/A       49  28  44 SE6G11     N/A
* EAST GLACIER N/A       46  22  39 NW9G16     N/A
* MONARCH      N/A       51  21  31 SW11G17    N/A
* PENDROY      N/A       51  24  35 W13        N/A
* ROGERS PASS  N/A       45  23  42 SE9        N/A
* SWEET GRASS  N/A       48  23  37 W9         N/A
* WHITE SULPH  N/A       52  24  34 S11G16     N/A
$$

MTZ011-013-016-021-035-040-045-047-050-051-271800-
NORTH CENTRAL MONTANA
CITY           SKY/WX    TMP DP  RH WIND       PRES   REMARKS
HAVRE          CLOUDY    46  34  63 SW14      29.85S
* CHINOOK      CLOUDY    36  30  79 NE5       29.85S WCI  32
* CHESTER      N/A       33  28  82 E1         N/A
* DENTON       N/A       50  29  44 SE6        N/A
* GEYSER       N/A       53  25  34 W9         N/A
* JUDITH GAP   N/A       57  26  30 NW8G13     N/A
* LOMA         N/A       48  31  52 W8         N/A
$$

MTZ017>020-022>027-061-062-271800-
NORTHEAST MONTANA
CITY           SKY/WX    TMP DP  RH WIND       PRES   REMARKS
GLASGOW        CLOUDY    37  30  76 SE3       29.86R
GLENDIVE       PTCLDY    41  34  76 SE5       29.90R
JORDAN         CLOUDY    39  34  82 W3        29.88R
SIDNEY         PTCLDY    39  36  89 S9        29.88R WCI  33
WOLF POINT     CLOUDY    37  34  89 W7        29.86R WCI  32
* BEAVER HILL  N/A       45  31  58 S2G9       N/A
* CIRCLE       N/A       41  34  76 N/A        N/A
* LINDSAY DVD  N/A       57  31  37 SW8G14     N/A
* NAVAJO       N/A       42  33  71 W14        N/A
* PLENTYWOOD A PTSUNNY   39  36  89 CALM      29.82R
* POPLAR APT   PTSUNNY   37  34  89 N/A       29.86R
* SACO         N/A       33  31  92 E4         N/A
* SCOBEY APT   CLOUDY    41  30  65 N/A        N/A
$$

MTZ028>042-056>058-271800-
SOUTHCENTRAL AND SOUTHEAST MONTANA
CITY           SKY/WX    TMP DP  RH WIND       PRES   REMARKS
BAKER          PTCLDY    46  34  63 VRB3      29.92S
BILLINGS       PTSUNNY   48  28  46 SW18      29.93F
LIVINGSTON     SUNNY     57  21  25 SW23G36   29.99R
MILES CITY     PTSUNNY   37  30  76 SE6       29.92S WCI  32
* BIG TIMBER A PTCLDY    54  25  33 W20       29.98F
* FORSYTH APT  PTSUNNY   50  32  50 CALM      29.91S
* LAUREL APT   PTSUNNY   46  27  48 SW13       N/A
* ROUNDUP APT  PTSUNNY   48  27  44 S13G21     N/A
* ALZADA       N/A       49  31  50 SW1        N/A
* HYSHAM       N/A       53  25  34 W9G16      N/A
* LAME DEER    N/A       60  25  26 W6G11      N/A
* REED POINT   N/A       32  31  96 N/A        N/A
* ROSCOE HILL  N/A       50  12  22 SW4        N/A
$$

REGIONAL REPORTS...DAKOTAS
CITY           SKY/WX    TMP DP  RH WIND       PRES   REMARKS
WILLISTON      PTCLDY    37  32  82 S8        29.84S WCI  31
DICKINSON      PTSUNNY   50  34  54 W13       29.85R
BEACH          SUNNY     46  34  63 SW13      29.89S
CROSBY         SUNNY     37  37 100 S9        29.80S WCI  30
TIOGA          SUNNY     37  37 100 SW8       29.84S WCI  31
WATFORD CITY   SUNNY     37  36  96 SW3       29.83S
BISMARCK       PTCLDY    39  32  76 S9        29.90F WCI  33
GRAND FORKS    FOG       28  27  96 S12       30.04S VSB 1    WCI  18
FARGO          FOG       30  28  92 S15       30.07F WCI  19
BUFFALO SD     PTCLDY    54  30  40 W10       29.87R
RAPID CITY     SUNNY     64  25  23 W8        29.97R
$$

REGIONAL REPORTS...WYOMING/IDAHO/WASHINGTON
CITY           SKY/WX    TMP DP  RH WIND       PRES   REMARKS
GILLETTE       PTCLDY    57  28  33 SW18      29.98F
SHERIDAN       SUNNY     45  30  56 CALM      29.95F
CODY           PTCLDY    45  27  49 CALM      30.03F
YELLOWSTONE LA PTCLDY    18  16  92 CALM      30.25S
SALMON         CLOUDY   N/A N/A N/A CALM      30.18S VSB 1/2
MULLAN PASS    CLOUDY    43  27  53 S7        30.02S
SAND POINT     FOG      N/A N/A N/A CALM      30.03S VSB M1/4
SPOKANE        FOG       30  30 100 E3        30.00R VSB M1/4
$$

REGIONAL REPORTS...ALBERTA
CITY           SKY/WX    TMP DP  RH WIND       PRES   REMARKS
CALGARY        PTSUNNY   46  27  48 SE2       29.76R
LETHBRIDGE     PTSUNNY   45  27  49 SW17G26   29.81S
MEDICINE HAT   CLOUDY    39  32  76 SW7       29.80R WCI  34
EDMONTON       FOG       28  27  96 NE2       29.78R VSB 3
WATERTON GATE  N/A       52  18  26 SW13G21    N/A
CARDSTON       N/A       50  23  35 SW8        N/A
MILK RIVER     N/A       39  30  70 NW6        N/A   WCI  35
$$

REGIONAL REPORTS...SASKATCHEWAN
CITY           SKY/WX    TMP DP  RH WIND       PRES   REMARKS
SWIFT CURRENT  PTSUNNY   37  32  82 W10       29.76S WCI  30
MOOSE JAW      CLOUDY    32  30  92 CALM      29.79R
REGINA         CLOUDY    27  25  92 E7        29.78S WCI  19
VAL MARIE      N/A       36  34  92 SW2        N/A
ASSINIBOIA     N/A       37  32  82 SW5        N/A   WCI  33
CORONACH       N/A       45  34  65 S1         N/A

$$



USA.gov is the U.S. government's official web portal to all federal, state and local government web resources and services.